Regional Weather Roundup
Issued by NWS Midland/Odessa, TX

Skip options and go directly to product.
Home | Oldest Version | Previous Version | Current Version | All | Text Only | Save Text | Print | Product List | Glossary On

Skip product version selection by date and time.   
646
ASUS44 KMAF 221510
RWRMAF
MIDLAND AREA WEATHER ROUNDUP
NATIONAL WEATHER SERVICE MIDLAND TX
900 AM CST MON DEC 22 2014

...IN SOUTHWEST TEXAS AND SOUTHEAST NEW MEXICO...

CITY           SKY/WX    TMP DP  RH WIND       PRES   REMARKS
ALPINE         CLOUDY    55  28  36 W8        29.96S
ANDREWS        FAIR      52  30  43 NW13G20   29.76R
ARTESIA        CLOUDY    52  30  43 W13G20    29.79S
BIG SPRING     CLOUDY    54  32  43 S9        29.75R
CARLSBAD       CLOUDY    61  30  31 W16       29.77R
DRYDEN           N/A     58  37  45 SW13      29.78R
FORT STOCKTON  CLOUDY    58  30  34 SW18      29.80R
GUAD PASS      NOT AVBL
HOBBS          PTSUNNY   50  28  43 W12       29.78R
MARFA          CLOUDY    48  27  43 W12       29.96F
MIDLAND AIRPK  CLOUDY    56  31  38 W16       29.75R
MIDLAND INTL   CLOUDY    57  31  37 W15       29.74R
ODESSA         CLOUDY    53  29  39 W9        29.76R
PECOS          CLOUDY    58  31  36 SW18      29.79S
PRESIDIO       FAIR      51  29  42 N9        29.92R
SEMINOLE       CLOUDY    50  31  48 W9        29.77R
SNYDER         PTSUNNY   51  33  50 W7        29.71R
WINK           CLOUDY    55  29  36 NW6       29.77R
$$
...OTHER STATIONS IN TEXAS...

CITY           SKY/WX    TMP DP  RH WIND       PRES   REMARKS
ABILENE        MOSUNNY   55  36  48 W10       29.68R
AMARILLO       PTSUNNY   44  33  65 N20       29.73S WCI  36
AUSTIN         PTSUNNY   60  53  77 SW15G24   29.73R
BROWNSVILLE    CLOUDY    64  63  96 S15       29.81S FOG
CORPUS CHRISTI CLOUDY    61  60  97 SW14      29.79S FOG
DALLAS FTW     MOSUNNY   55  50  83 S14       29.60R
DEL RIO        CLOUDY    53  52  96 CALM      29.79R FOG
EL PASO        PTCLDY    48  32  53 S10       29.91F
HOUSTON INT    CLOUDY    65  61  87 SW6       29.77R
LUBBOCK        MOSUNNY   47  33  58 N15       29.73R
SAN ANGELO     MOSUNNY   51  42  71 SW13      29.74R
SAN ANTONIO    CLOUDY    58  53  84 SW9       29.77F
WACO           MOSUNNY   58  52  80 S12       29.66R
WICHITA FALLS  NOT AVBL
$$
...OTHER LOCATIONS IN NEW MEXICO...

CITY           SKY/WX    TMP DP  RH WIND       PRES   REMARKS
ALAMAGORDO     MOCLDY    32  27  80 E8        29.91R WCI  25
ALBUQUERQUE    PTCLDY    34  29  82 SE8       29.91S WCI  27
CANNON AFB     CLOUDY    40  31  69 N17       29.79R WCI  32
CLOVIS         PTSUNNY   39  30  70 N17       29.78R WCI  30
HOLLOMAN AFB   MOCLDY    34  29  81 N8        29.89S WCI  27
ROSWELL        CLOUDY    65  26  23 NW31G51   29.73F HAZE
RUIDOSO        PTCLDY    45  27  49 NW18G38   29.89R WCI  37
SANTA FE       MOCLDY    40  29  64 W6        29.85F WCI  36
TRUTH OR CONSE CLEAR     51  32  48 NW14      29.91R
TUCUMCARI      MOCLDY    41  31  67 N8        29.78F WCI  36
$$

USA.gov is the U.S. government's official web portal to all federal, state and local government web resources and services.